Change the Weather History Date:

Wednesday, January 9, 2013

  Actual Average Record
Temperature  
Mean Temperature 32 °F 24 °F  
Max Temperature 48 °F 36 °F 70 °F (1953)
Min Temperature 16 °F 11 °F -25 °F (1973)
Degree Days  
Heating Degree Days 33 42  
Month to date heating degree days 367 378  
Since 1 July heating degree days 3322 3561  
Cooling Degree Days 0 0  
Month to date cooling degree days 0 0  
Year to date cooling degree days 0 0  
Moisture  
Dew Point 21 °F    
Average Humidity 61    
Maximum Humidity 80    
Minimum Humidity 42    
Precipitation  
Precipitation 0.00 in 0.02 in 0.30 in (1924)
Month to date precipitation T 0.15  
Year to date precipitation T 0.15  
Sea Level Pressure  
Sea Level Pressure 29.98 in    
Wind  
Wind Speed 4 mph (WNW)    
Max Wind Speed 13 mph    
Max Gust Speed 17 mph    
Visibility 10 miles    
Events      
T = Trace of Precipitation, MM = Missing Value Source: NWS Daily Summary

Daily Weather History Graph

Daily Weather History Graph

Search for Another Location

Airport or City:

Trip Planner

Search our weather history database for the weather conditions in past years. The results will help you decide how hot, cold, wet, or windy it might be!

Date:

Astronomy

Jan. 09, 2013 Rise Set
Actual Time 7:44 AM MST 4:46 PM MST
Civil Twilight 7:11 AM MST 5:19 PM MST
Nautical Twilight 6:34 AM MST 5:56 PM MST
Astronomical Twilight 5:59 AM MST 6:31 PM MST
Moon 5:26 AM MST (1/9) 2:50 PM MST (1/9)
Length of Visible Light 10h 08m
Length of Day
9h 02m
Waning Crescent, 6% of the Moon is Illuminated
Jan 9
Waning Crescent
Jan 11
New
Jan 18
First Quarter
Jan 26
Full
Feb 3
Last Quarter

Hourly Weather History & Observations

Time (MST) Temp. Windchill Dew Point Humidity Pressure Visibility Wind Dir Wind Speed Gust Speed Precip Events Conditions
12:53 AM 19.0 °F 9.0 °F 12.0 °F 74% 30.09 in 10.0 mi NW 8.1 mph - N/A   Clear
1:53 AM 25.0 °F - 14.0 °F 63% 30.08 in 10.0 mi Calm Calm - N/A   Clear
2:53 AM 19.0 °F - 12.0 °F 74% 30.09 in 10.0 mi Calm Calm - N/A   Clear
3:53 AM 21.0 °F 16.2 °F 12.9 °F 71% 30.09 in 10.0 mi North 3.5 mph - N/A   Clear
4:53 AM 16.0 °F 10.4 °F 10.9 °F 81% 30.11 in 10.0 mi South 3.5 mph - N/A   Clear
5:53 AM 21.0 °F - 12.9 °F 71% 30.12 in 10.0 mi Calm Calm - N/A   Clear
6:53 AM 26.1 °F 21.9 °F 14.0 °F 60% 30.09 in 10.0 mi Variable 3.5 mph - N/A   Clear
7:53 AM 36.0 °F 33.3 °F 18.0 °F 48% 30.08 in 10.0 mi South 3.5 mph - N/A   Clear
8:53 AM 30.9 °F 24.3 °F 19.0 °F 61% 30.09 in 10.0 mi NNW 6.9 mph - N/A   Clear
9:53 AM 33.1 °F - 19.9 °F 59% 30.11 in 10.0 mi Calm Calm - N/A   Clear
10:53 AM 36.0 °F - 21.0 °F 55% 30.08 in 10.0 mi Calm Calm - N/A   Clear
11:53 AM 42.1 °F - 23.0 °F 47% 30.02 in 10.0 mi Calm Calm - N/A   Clear
12:53 PM 48.0 °F - 26.1 °F 42% 29.96 in 10.0 mi SE 6.9 mph - N/A   Clear
1:53 PM 41.0 °F 36.4 °F 28.0 °F 60% 29.96 in 10.0 mi WNW 6.9 mph - N/A   Clear
2:53 PM 45.0 °F 41.8 °F 28.9 °F 53% 29.96 in 10.0 mi NNW 5.8 mph - N/A   Clear
3:53 PM 39.9 °F 35.8 °F 30.0 °F 68% 29.93 in 10.0 mi NW 5.8 mph - N/A   Clear
4:53 PM 37.0 °F 33.3 °F 28.9 °F 73% 29.91 in 10.0 mi NNW 4.6 mph - N/A   Clear
5:53 PM 36.0 °F 32.1 °F 28.0 °F 73% 29.87 in 10.0 mi South 4.6 mph - N/A   Clear
6:53 PM 34.0 °F 31.0 °F 27.0 °F 75% 29.85 in 10.0 mi Variable 3.5 mph - N/A   Clear
7:53 PM 37.0 °F - 25.0 °F 62% 29.78 in 10.0 mi Calm Calm - N/A   Clear
8:53 PM 32.0 °F 28.7 °F 25.0 °F 75% 29.80 in 10.0 mi Variable 3.5 mph - N/A   Clear
9:53 PM 34.0 °F 26.6 °F 24.1 °F 67% 29.80 in 10.0 mi WNW 9.2 mph - N/A   Clear
10:53 PM 33.1 °F 25.5 °F 24.1 °F 70% 29.80 in 10.0 mi NNW 9.2 mph - N/A   Clear
11:53 PM 28.9 °F 18.6 °F 24.1 °F 82% 29.78 in 10.0 mi SW 12.7 mph - N/A   Clear